Regional Weather Roundup
Issued by NWS

Home | Current Version | Previous Version | Graphics & Text | Print | Product List | Glossary On
Versions: 1 2 3 4 5 6 7 8 9 10 11 12 13 14 15 16 17 18 19 20 21 22 23 24 25 26 27 28 29 30 31 32 33 34 35 36 37 38 39 40 41 42 43 44 45 46 47 48 49 50
201
ASUS43 KMKX 251600
RWRWI

WISCONSIN REGIONAL WEATHER ROUNDUP
NATIONAL WEATHER SERVICE MILWAUKEE/SULLIVAN WI
1100 AM CDT TUE APR 25 2017

NOTE: "FAIR" INDICATES FEW OR NO CLOUDS BELOW 12,000 FEET WITH NO
SIGNIFICANT WEATHER AND/OR OBSTRUCTIONS TO VISIBILITY.

WIZ001-002-006>008-014>016-023>028-251700-
NORTHWEST WISCONSIN

CITY           SKY/WX    TMP DP  RH WIND       PRES   REMARKS
SUPERIOR ARPT  CLOUDY    44  39  82 E12G17    29.61R
ASHLAND        CLOUDY    49  40  71 NE8       29.59R
HAYWARD        CLOUDY    63  35  35 S7        29.56R
SIREN          CLOUDY    54  46  74 CALM      29.56R
CUMBERLAND     CLOUDY    63  34  34 S7        29.54S
RICE LAKE      CLOUDY    66  35  31 SE8       29.57R
CHETEK         CLOUDY    64  39  40 SE9       29.56R
LADYSMITH      CLOUDY    64  38  37 SE9       29.59R
EAU CLAIRE     NOT AVBL
MENOMONIE      PTSUNNY   68  37  32 SE10      29.55R
NEW RICHMOND   PTSUNNY   64  36  35 S8        29.54R
OSCEOLA        MOSUNNY   63  41  43 S9        29.56R
$$

WIZ003>005-009-010-017-018-251700-
NORTH CENTRAL WISCONSIN

CITY           SKY/WX    TMP DP  RH WIND       PRES   REMARKS
MANITOWISH WTR MOSUNNY   63  37  38 S9        29.60S
ARBOR VITAE    SUNNY     64  36  36 SE7       29.61R
WOODRUFF       SUNNY     64  36  36 SE7       29.61R
RHINELANDER    SUNNY     68  38  33 S13       29.63R
EAGLE RIVER    SUNNY     64  32  30 SE8       29.62S
LAND O LAKES   MOSUNNY   64  34  32 SE8       29.64S
PHILLIPS       CLOUDY    65  39  37 SE9       29.58S
TOMAHAWK       SUNNY     65  38  37 S6        29.62R
MEDFORD        MOSUNNY   62  42  47 S13       29.60R
MERRILL        MOSUNNY   64  40  42 S6        29.62R
$$

WIZ029-030-035-036-043>047-251700-
CENTRAL WISCONSIN

CITY           SKY/WX    TMP DP  RH WIND       PRES   REMARKS
WAUSAU         CLOUDY    66  41  40 SE13      29.60S
MOSINEE        NOT AVBL
MARSHFIELD     SUNNY     66  40  38 SE10      29.59S
STEVENS POINT  SUNNY     65  42  42 S12       29.63S
WAUPACA        SUNNY     68  45  42 S13       29.64S
WAUTOMA        SUNNY     69  44  40 SE8       29.63S
WISC RAPIDS    NOT AVBL
CAMP DOUGLAS   NOT AVBL
$$

WIZ011>013-019>022-031-037>040-048>050-251700-
NORTHEAST WISCONSIN

CITY           SKY/WX    TMP DP  RH WIND       PRES   REMARKS
ANTIGO         SUNNY     63  41  44 S14       29.64S
SHAWANO        SUNNY     67  46  47 SE9       29.66S
OCONTO         SUNNY     60  47  64 S12G18    29.67F
STURGEON BAY   SUNNY     58  48  69 S18G26    29.69F
GREEN BAY      SUNNY     64  52  64 SE13      29.68S
MANITOWOC      NOT AVBL
APPLETON       MOSUNNY   64  43  45 SE9       29.64F
CLINTONVILLE   SUNNY     66  43  42 SE10      29.64S
OSHKOSH        SUNNY     69  47  45 S14G21    29.64S
$$

WIZ032>034-041-042-053>061-251700-
SOUTHWEST WISCONSIN

CITY           SKY/WX    TMP DP  RH WIND       PRES   REMARKS
LA CROSSE      MOSUNNY   70  42  36 S9        29.55F
SPARTA         CLOUDY    69  39  33 S3        29.58F
VIROQUA        MOSUNNY   67  38  35 S9        29.59S
BOSCOBEL       PTSUNNY   70  41  34 VRB6      29.59F
PRAIRIE DU CHI CLOUDY    67  39  36 SE7       29.57F
PLATTEVILLE    CLOUDY    66  44  44 S10       29.61F
$$

WIZ056-057-062-063-064-067-068-251700-
SOUTH CENTRAL WISCONSIN

CITY           SKY/WX    TMP DP  RH WIND       PRES   REMARKS
REEDSBURG      SUNNY     67  43  41 S10G16    29.61S
BARABOO/DELLS  SUNNY     66  40  38 S9        29.62S
LONE ROCK      NOT AVBL
MINERAL POINT  CLOUDY    68  41  37 S10       29.61F
MADISON        PTSUNNY   69  42  37 S16       29.62F
MIDDLETON      SUNNY     70  44  38 S14       29.63F
WATERTOWN      SUNNY     70  46  42 S15       29.65F
MONROE         MOSUNNY   66  41  39 S13G18    29.63F
JANESVILLE     PTSUNNY   72  43  35 S13G18    29.64F
$$

WIZ051-052-058>065-066-070>072-251700-
SOUTHEAST WISCONSIN

CITY           SKY/WX    TMP DP  RH WIND       PRES   REMARKS
MILWAUKEE      MOSUNNY   64  51  62 SE9       29.68S
WAUKESHA       SUNNY     66  46  48 SE12G18   29.68S
MILWAUKEE/TIMM SUNNY     70  45  40 S6        29.68S
RACINE         SUNNY     60  49  66 S12       29.70F
KENOSHA        SUNNY     69  51  52 S10       29.68F
FOND DU LAC    SUNNY     68  46  45 S14       29.65S
SHEBOYGAN      SUNNY     56  50  80 S13       29.70S
WEST BEND      SUNNY     64  46  52 SE7       29.68R
JUNEAU         SUNNY     67  46  47 S14       29.66F
$$

LSZ147-162-251700-
LAKE SUPERIOR

STATION/POSITION TIME  TEMP    WIND        PRES    WAVE
                       AIR SEA DIR/SP/G            HT/PER
                 (UTC) (F)     (DEG/KT/KT) (MB)    (FT/S)
DEVILS ISLAND    1500   39      60/ 14/ 16 1002.6F
PORT WING        1440   38      30/ 13/ 16 1002.7
SAXON HARBOR     1540   43     340/  2/  4 1002.0R
$$

LMZ867-665-643>646-251700-
LAKE MICHIGAN

STATION/POSITION TIME  TEMP    WIND        PRES    WAVE
                       AIR SEA DIR/SP/G            HT/PER
                 (UTC) (F)     (DEG/KT/KT) (MB)    (FT/S)
CHAMBERS ISLAND  1540   58     160/  8/ 17 1005.4F
N MID LAKE BUOY  1450   43 37  120/  6/  8 1008.2F   2/ 3
NORTHPORT PIER   1540   50     150/ 13/ 20 1006.1F
KEWAUNEE LAKESHO 1530   47     170/  8/ 10 1005.9F
SHEBOYGAN LAKESH 1500   45     180/  7/  8 1006.1F
PORT WASHINGTON  1530   47     140/  4/  6 1006.8S
MILWAUKEE LAKESH 1530   47     130/ 14/ 16   N/A
S MID LAKE BUOY  1450   46 41  120/ 12/ 12 1007.0F   1/ 3
KENOSHA   LAKESH 1500   49     170/ 11/ 13 1005.8
$$

TC  - TEMPERATURE IN CELSIUS
VSB - VISIBILITY IN STATUTE MILES
WCI - WIND CHILL INDEX
HX  - HEAT INDEX





USA.gov is the U.S. government's official web portal to all federal, state and local government web resources and services.